APG215 RPLL-RPVE

Flight info

Callsign APG215
Flight time 0h 34m
Altitude 27000
Route VERDE2R VERDE W24 TAPER TAPER7A
Aircraft A320/M-SDE3FGHIRWY/LB1

Departure

Time 2026-05-04 15:08
Airport Ninoy Aquino International Airport (RPLL)

Arrival

Time 2026-05-04 15:42
Airport Godofredo P. Ramos Airport (RPVE)
Time Latitude Longitude Altitude Speed Heading
2026-05-04 14:50 14.50827 121.01273 69 ft 0 kts 330°
2026-05-04 14:56 14.50826 121.01273 69 ft 2 kts 330°
2026-05-04 14:57 14.50803 121.01287 68 ft 4 kts 328°
2026-05-04 14:57 14.50782 121.01302 62 ft 4 kts 321°
2026-05-04 14:57 14.50767 121.01316 67 ft 2 kts 296°
2026-05-04 14:57 14.50763 121.01328 63 ft 2 kts 263°
2026-05-04 14:58 14.50765 121.01340 66 ft 2 kts 246°
2026-05-04 14:58 14.50770 121.01350 59 ft 2 kts 240°
2026-05-04 14:58 14.50775 121.01360 59 ft 2 kts 238°
2026-05-04 14:58 14.50777 121.01362 59 ft 0 kts 238°
2026-05-04 15:02 14.50755 121.01330 65 ft 14 kts 232°
2026-05-04 15:02 14.50666 121.01312 68 ft 13 kts 210°
2026-05-04 15:02 14.50622 121.01236 65 ft 12 kts 238°
2026-05-04 15:03 14.50575 121.01150 67 ft 17 kts 240°
2026-05-04 15:03 14.50504 121.01021 64 ft 23 kts 240°
2026-05-04 15:03 14.50418 121.00867 66 ft 26 kts 240°
2026-05-04 15:03 14.50322 121.00697 66 ft 28 kts 240°
2026-05-04 15:04 14.50222 121.00515 62 ft 30 kts 240°
2026-05-04 15:04 14.50123 121.00333 63 ft 29 kts 240°
2026-05-04 15:04 14.50023 121.00158 65 ft 23 kts 239°
2026-05-04 15:04 14.49951 121.00028 64 ft 19 kts 241°
2026-05-04 15:05 14.49895 120.99960 65 ft 8 kts 190°
2026-05-04 15:05 14.49871 120.99967 67 ft 0 kts 152°
2026-05-04 15:07 14.49848 120.99980 67 ft 9 kts 152°
2026-05-04 15:07 14.49807 121.00046 64 ft 15 kts 65°
2026-05-04 15:07 14.49907 121.00231 62 ft 60 kts 62°
2026-05-04 15:07 14.50236 121.00821 63 ft 127 kts 60°
2026-05-04 15:08 14.50768 121.01769 156 ft 170 kts 62°
2026-05-04 15:08 14.51370 121.02824 845 ft 172 kts 63°
2026-05-04 15:08 14.51960 121.03889 1675 ft 170 kts 61°
2026-05-04 15:08 14.52549 121.04958 2226 ft 182 kts 61°
2026-05-04 15:09 14.53217 121.06170 2535 ft 207 kts 60°
2026-05-04 15:09 14.53937 121.07554 2919 ft 232 kts 69°
2026-05-04 15:09 14.54083 121.09276 3422 ft 254 kts 102°
2026-05-04 15:10 14.51533 121.11709 5044 ft 277 kts 169°
2026-05-04 15:10 14.49587 121.11774 5926 ft 282 kts 181°
2026-05-04 15:10 14.45613 121.11383 7611 ft 291 kts 185°
2026-05-04 15:11 14.43590 121.11139 8431 ft 295 kts 184°
2026-05-04 15:11 14.41535 121.10907 9230 ft 300 kts 184°
2026-05-04 15:11 14.39444 121.10693 10016 ft 304 kts 182°
2026-05-04 15:11 14.37271 121.10492 10351 ft 325 kts 182°
2026-05-04 15:12 14.34935 121.10295 10548 ft 348 kts 182°
2026-05-04 15:12 14.32481 121.10094 11042 ft 358 kts 182°
2026-05-04 15:12 14.29980 121.09888 11707 ft 362 kts 182°
2026-05-04 15:12 14.27462 121.09676 12428 ft 365 kts 182°
2026-05-04 15:13 14.24959 121.09462 13109 ft 367 kts 182°
2026-05-04 15:13 14.22405 121.09242 13804 ft 369 kts 182°
2026-05-04 15:13 14.19831 121.09024 14404 ft 372 kts 182°
2026-05-04 15:13 14.17248 121.08805 14990 ft 375 kts 183°
2026-05-04 15:14 14.14637 121.08582 15572 ft 378 kts 183°
2026-05-04 15:14 14.12003 121.08356 16139 ft 381 kts 183°
2026-05-04 15:14 14.09358 121.08132 16707 ft 384 kts 183°
2026-05-04 15:14 14.06685 121.07909 17260 ft 387 kts 183°
2026-05-04 15:15 14.03987 121.07683 17844 ft 389 kts 184°
2026-05-04 15:15 14.01281 121.07455 18382 ft 393 kts 184°
2026-05-04 15:15 13.98546 121.07223 18865 ft 395 kts 184°
2026-05-04 15:16 13.93024 121.06757 19864 ft 401 kts 184°
2026-05-04 15:16 13.90267 121.06527 20358 ft 404 kts 184°
2026-05-04 15:16 13.84633 121.06061 21344 ft 409 kts 184°
2026-05-04 15:17 13.81781 121.05825 21830 ft 412 kts 184°
2026-05-04 15:17 13.76029 121.05337 22756 ft 418 kts 184°
2026-05-04 15:17 13.73126 121.05088 23202 ft 420 kts 184°
2026-05-04 15:18 13.70195 121.04838 23633 ft 423 kts 184°
2026-05-04 15:18 13.67255 121.04591 23991 ft 425 kts 184°
2026-05-04 15:18 13.64299 121.04345 24358 ft 427 kts 184°
2026-05-04 15:19 13.58348 121.03850 25060 ft 431 kts 184°
2026-05-04 15:19 13.55386 121.03619 25402 ft 433 kts 181°
2026-05-04 15:19 13.49450 121.04534 26066 ft 435 kts 160°
2026-05-04 15:20 13.46684 121.05826 26370 ft 437 kts 150°
2026-05-04 15:20 13.44141 121.07555 26674 ft 440 kts 145°
2026-05-04 15:20 13.41613 121.09343 26924 ft 441 kts 146°
2026-05-04 15:20 13.39091 121.11117 26977 ft 439 kts 146°
2026-05-04 15:21 13.36573 121.12883 26981 ft 438 kts 146°
2026-05-04 15:21 13.34053 121.14647 26982 ft 438 kts 146°
2026-05-04 15:21 13.29015 121.18175 26983 ft 438 kts 146°
2026-05-04 15:22 13.26499 121.19939 26985 ft 439 kts 146°
2026-05-04 15:22 13.23974 121.21707 26985 ft 439 kts 146°
2026-05-04 15:22 13.18949 121.25233 26986 ft 440 kts 146°
2026-05-04 15:23 13.16423 121.27008 26985 ft 440 kts 146°
2026-05-04 15:23 13.13923 121.28766 26983 ft 439 kts 145°
2026-05-04 15:23 13.11382 121.30554 26969 ft 437 kts 145°
2026-05-04 15:23 13.08873 121.32314 26971 ft 439 kts 146°
2026-05-04 15:24 13.03820 121.35843 26972 ft 439 kts 146°
2026-05-04 15:24 12.98766 121.39371 26617 ft 439 kts 146°
2026-05-04 15:25 12.96243 121.41134 26373 ft 438 kts 145°
2026-05-04 15:25 12.93731 121.42894 26139 ft 437 kts 145°
2026-05-04 15:25 12.91230 121.44646 25918 ft 435 kts 145°
2026-05-04 15:26 12.86249 121.48125 25449 ft 432 kts 145°
2026-05-04 15:26 12.83768 121.49856 25193 ft 429 kts 145°
2026-05-04 15:26 12.78874 121.53273 23962 ft 424 kts 145°
2026-05-04 15:27 12.76446 121.54972 23312 ft 422 kts 145°
2026-05-04 15:27 12.71640 121.58331 22150 ft 413 kts 145°
2026-05-04 15:28 12.66973 121.61581 21104 ft 405 kts 145°
2026-05-04 15:28 12.64650 121.63197 20605 ft 401 kts 145°
2026-05-04 15:28 12.60063 121.66390 19595 ft 395 kts 144°
2026-05-04 15:29 12.57800 121.67968 19091 ft 393 kts 144°
2026-05-04 15:30 12.48874 121.74193 16948 ft 383 kts 144°
2026-05-04 15:30 12.42324 121.78747 15351 ft 376 kts 144°
2026-05-04 15:31 12.37829 121.81421 14276 ft 375 kts 159°
2026-05-04 15:31 12.35322 121.81995 13693 ft 377 kts 172°
2026-05-04 15:32 12.27456 121.80738 11475 ft 375 kts 191°
2026-05-04 15:32 12.22516 121.79670 10401 ft 338 kts 190°
2026-05-04 15:33 12.18273 121.78763 9787 ft 303 kts 189°
2026-05-04 15:34 12.12154 121.77456 9348 ft 299 kts 190°
2026-05-04 15:34 12.10109 121.77015 9012 ft 299 kts 190°
2026-05-04 15:34 12.06076 121.76142 8262 ft 294 kts 190°
2026-05-04 15:35 12.02127 121.75289 7519 ft 290 kts 190°
2026-05-04 15:35 12.00161 121.74865 7157 ft 288 kts 190°
2026-05-04 15:35 11.98204 121.74444 6786 ft 286 kts 190°
2026-05-04 15:36 11.94342 121.73608 6042 ft 281 kts 190°
2026-05-04 15:36 11.92434 121.73230 5675 ft 277 kts 183°
2026-05-04 15:36 11.90553 121.73354 5321 ft 269 kts 163°
2026-05-04 15:37 11.88851 121.74065 4963 ft 262 kts 150°
2026-05-04 15:37 11.87244 121.74908 4607 ft 254 kts 150°
2026-05-04 15:37 11.85708 121.75705 4261 ft 241 kts 149°
2026-05-04 15:37 11.84375 121.76644 3952 ft 228 kts 124°
2026-05-04 15:38 11.83899 121.78115 3653 ft 219 kts 84°
2026-05-04 15:38 11.84378 121.79563 3363 ft 216 kts 65°
2026-05-04 15:38 11.85049 121.80901 3076 ft 205 kts 63°
2026-05-04 15:38 11.85704 121.82145 2797 ft 193 kts 63°
2026-05-04 15:39 11.86323 121.83322 2544 ft 186 kts 63°
2026-05-04 15:39 11.86919 121.84468 2329 ft 177 kts 62°
2026-05-04 15:39 11.87982 121.86539 1861 ft 155 kts 62°
2026-05-04 15:40 11.88466 121.87489 1659 ft 146 kts 62°
2026-05-04 15:40 11.88921 121.88383 1463 ft 137 kts 62°
2026-05-04 15:40 11.89352 121.89234 1293 ft 132 kts 63°
2026-05-04 15:40 11.89772 121.90068 1126 ft 131 kts 63°
2026-05-04 15:41 11.90192 121.90897 960 ft 132 kts 62°
2026-05-04 15:41 11.90613 121.91732 781 ft 131 kts 62°
2026-05-04 15:41 11.91033 121.92569 618 ft 134 kts 62°
2026-05-04 15:41 11.91454 121.93416 480 ft 135 kts 62°
2026-05-04 15:42 11.91875 121.94265 212 ft 134 kts 63°
2026-05-04 15:42 11.92308 121.95094 49 ft 132 kts 63°
2026-05-04 15:42 11.92664 121.95813 34 ft 80 kts 63°
2026-05-04 15:42 11.92789 121.96063 33 ft 14 kts 64°
2026-05-04 15:43 11.92775 121.96134 35 ft 9 kts 154°
2026-05-04 15:43 11.92747 121.96149 39 ft 0 kts 153°
2026-05-04 15:43 11.92741 121.96152 39 ft 6 kts 153°
2026-05-04 15:43 11.92677 121.96184 42 ft 10 kts 152°
2026-05-04 15:44 11.92626 121.96212 42 ft 7 kts 156°
2026-05-04 15:44 11.92583 121.96231 42 ft 6 kts 156°
2026-05-04 15:44 11.92546 121.96248 42 ft 5 kts 156°
2026-05-04 15:44 11.92533 121.96271 42 ft 3 kts 86°
2026-05-04 15:45 11.92541 121.96286 42 ft 2 kts 58°
2026-05-04 15:45 11.92544 121.96293 41 ft 0 kts 62°